sat.trackr.live / text

‹ back to catalog

STARLINK-36433

NORAD 67501 · 2026-012J

PAYLOAD ACTIVE UNKNOWN

§ Identity

Operator
Country
US
Launch date
2026-01-18
Launch site
AFETR
Launch vehicle
Mass (kg)
RCS (m²)

Purposes: comms

External: N2YO · Heavens-Above · Gunter

§ Orbital elements

Epoch: 2026-05-24T16:17:41.058816Z

Period
94.27 min
Inclination
43.0034°
Eccentricity
0.0001995
Mean motion
15.27586321 rev/d
Perigee alt
481.7 km
Apogee alt
484.4 km
Semi-major
6,861.2 km
B*
4.1748e-4
RAAN
245.2395°
Arg perigee
281.1934°
Mean anomaly
78.8693°
Rev number
1,938

§ Raw data

STARLINK-364331 67501U 26012J   26144.67894744  .00011246  00000+0  41748-3 0  99962 67501  43.0034 245.2395 0001995 281.1934  78.8693 15.27586321 19389

JSON: /api/v1/satellites/67501 · /tle

For live sub-satellite position, see the globe view (requires WebGL).

§ Visibility from observer

Set your observer location to see the next 7 days of passes ≥ 10°. The values pass through the URL so the page stays shareable.

No JS? Fill the form by hand. The geolocation button needs JavaScript.